| time (UTC) | temp C | wind direction | speed KPH | gust KPH | rain 1hr cm | rain 24hr cm | rain mn cm | humidity % | barometer mb |
| 20260506185103 | 18 | 154 | 1.6 | 3.2 | 0.00 | 0.00 | 0.00 | 61 | 1007.5 |
| 20260506184803 | 18 | 140 | 0.0 | 3.2 | 0.00 | 0.00 | 0.00 | 60 | 1007.5 |
| 20260506184203 | 19 | 148 | 1.6 | 3.2 | 0.00 | 0.00 | 0.00 | 58 | 1007.5 |
| 20260506183903 | 20 | 149 | 3.2 | 3.2 | 0.00 | 0.00 | 0.00 | 57 | 1007.5 |
| 20260506183604 | 20 | 149 | 0.0 | 3.2 | 0.00 | 0.00 | 0.00 | 57 | 1007.5 |
| 20260506183304 | 20 | 157 | 1.6 | 4.8 | 0.00 | 0.00 | 0.00 | 57 | 1007.5 |
| 20260506183003 | 20 | 148 | 3.2 | 6.4 | 0.00 | 0.00 | 0.00 | 57 | 1007.5 |
| 20260506182703 | 20 | 133 | 1.6 | 6.4 | 0.00 | 0.00 | 0.00 | 58 | 1007.5 |
| 20260506182404 | 20 | 132 | 4.8 | 9.7 | 0.00 | 0.00 | 0.00 | 58 | 1007.5 |
| 20260506182103 | 20 | 128 | 6.4 | 9.7 | 0.00 | 0.00 | 0.00 | 58 | 1007.5 |
| 20260506181804 | 20 | 134 | 1.6 | 9.7 | 0.00 | 0.10 | 0.00 | 58 | 1006.5 |
| 20260506181504 | 20 | 132 | 8.0 | 9.7 | 0.00 | 0.10 | 0.00 | 57 | 1006.5 |
| 20260506181203 | 20 | 118 | 4.8 | 9.7 | 0.00 | 0.10 | 0.00 | 56 | 1006.5 |
| 20260506180904 | 20 | 115 | 4.8 | 9.7 | 0.00 | 0.10 | 0.00 | 53 | 1006.5 |
| 20260506180603 | 20 | 112 | 4.8 | 9.7 | 0.00 | 0.10 | 0.00 | 52 | 1006.5 |
| 20260506180303 | 20 | 118 | 9.7 | 9.7 | 0.00 | 0.10 | 0.00 | 51 | 1006.5 |
| 20260506180004 | 20 | 125 | 4.8 | 9.7 | 0.00 | 0.10 | 0.00 | 51 | 1006.5 |
| 20260506175704 | 20 | 131 | 9.7 | 9.7 | 0.00 | 0.10 | 0.00 | 51 | 1006.5 |
| 20260506175403 | 20 | 136 | 9.7 | 9.7 | 0.00 | 0.10 | 0.00 | 51 | 1006.5 |
| 20260506175103 | 21 | 140 | 4.8 | 9.7 | 0.00 | 0.10 | 0.00 | 50 | 1006.5 |
| 20260506174803 | 21 | 140 | 6.4 | 9.7 | 0.00 | 0.10 | 0.00 | 49 | 1006.5 |
| 20260506174503 | 21 | 132 | 9.7 | 9.7 | 0.00 | 0.10 | 0.00 | 46 | 1006.5 |
| 20260506174204 | 21 | 132 | 6.4 | 9.7 | 0.00 | 0.10 | 0.00 | 45 | 1006.5 |
| 20260506173903 | 21 | 131 | 8.0 | 12.9 | 0.00 | 0.10 | 0.00 | 45 | 1006.5 |
| 20260506173603 | 21 | 140 | 8.0 | 12.9 | 0.00 | 0.10 | 0.00 | 45 | 1006.5 |
| 20260506173304 | 21 | 141 | 0.0 | 12.9 | 0.00 | 0.10 | 0.00 | 45 | 1006.5 |
| 20260506173003 | 21 | 135 | 4.8 | 12.9 | 0.00 | 0.10 | 0.00 | 45 | 1006.5 |
| 20260506172103 | 22 | 104 | 4.8 | 9.7 | 0.00 | 0.10 | 0.00 | 41 | 1006.5 |
| 20260506171803 | 22 | 112 | 1.6 | 9.7 | 0.00 | 0.10 | 0.00 | 41 | 1006.5 |
| 20260506171503 | 22 | 150 | 0.0 | 9.7 | 0.00 | 0.23 | 0.00 | 42 | 1006.5 |
| 20260506171204 | 21 | 140 | 9.7 | 9.7 | 0.00 | 0.23 | 0.00 | 42 | 1006.5 |
| 20260506170904 | 21 | 148 | 4.8 | 4.8 | 0.00 | 0.23 | 0.00 | 42 | 1006.5 |
| 20260506170303 | 22 | 135 | 4.8 | 4.8 | 0.00 | 0.23 | 0.00 | 41 | 1006.5 |
| 20260506165703 | 21 | 135 | 4.8 | 4.8 | 0.00 | 0.23 | 0.00 | 41 | 1006.5 |
| 20260506165403 | 21 | 135 | 4.8 | 4.8 | 0.00 | 0.23 | 0.00 | 41 | 1006.5 |
| 20260506165103 | 21 | 135 | 4.8 | 4.8 | 0.00 | 0.23 | 0.00 | 41 | 1006.5 |
| 20260506164804 | 21 | 135 | 4.8 | 4.8 | 0.00 | 0.23 | 0.00 | 42 | 1006.5 |
| 20260506164504 | 21 | 135 | 4.8 | 4.8 | 0.00 | 0.23 | 0.00 | 42 | 1006.5 |
| 20260506164203 | 21 | 135 | 4.8 | 4.8 | 0.00 | 0.23 | 0.00 | 42 | 1006.5 |
| 20260506163903 | 21 | 135 | 4.8 | 4.8 | 0.00 | 0.23 | 0.00 | 42 | 1006.5 |
| 20260506163603 | 21 | 135 | 4.8 | 4.8 | 0.00 | 0.23 | 0.00 | 42 | 1006.5 |
| 20260506163303 | 21 | 135 | 4.8 | 4.8 | 0.00 | 0.23 | 0.00 | 43 | 1006.5 |
| 20260506163003 | 21 | 135 | 4.8 | 4.8 | 0.00 | 0.23 | 0.00 | 44 | 1006.5 |
| 20260506162702 | 21 | 135 | 4.8 | 4.8 | 0.00 | 0.23 | 0.00 | 42 | 1006.5 |
| 20260506162403 | 21 | 135 | 4.8 | 4.8 | 0.00 | 0.23 | 0.00 | 43 | 1006.5 |
| 20260506162103 | 21 | 135 | 4.8 | 4.8 | 0.00 | 0.23 | 0.00 | 44 | 1006.5 |
| 20260506161803 | 21 | 135 | 4.8 | 4.8 | 0.00 | 0.23 | 0.00 | 43 | 1006.5 |
| 20260506161503 | 22 | 135 | 4.8 | 4.8 | 0.00 | 0.23 | 0.00 | 42 | 1006.5 |
| 20260506161203 | 22 | 135 | 4.8 | 4.8 | 0.00 | 0.23 | 0.00 | 41 | 1006.5 |
| 20260506160604 | 22 | 121 | 4.8 | 9.7 | 0.00 | 0.23 | 0.00 | 41 | 1006.5 |
| 20260506160303 | 22 | 104 | 4.8 | 9.7 | 0.00 | 0.23 | 0.00 | 39 | 1006.5 |
| 20260506160003 | 22 | 93 | 3.2 | 9.7 | 0.00 | 0.23 | 0.00 | 36 | 1006.5 |
| 20260506154503 | 23 | 90 | 9.7 | 9.7 | 0.00 | 0.23 | 0.00 | 33 | 1006.5 |
| 20260506154203 | 22 | 90 | 9.7 | 9.7 | 0.00 | 0.23 | 0.00 | 33 | 1006.5 |
| 20260506153903 | 23 | 99 | 9.7 | 9.7 | 0.00 | 0.23 | 0.00 | 32 | 1006.5 |
| 20260506153603 | 23 | 140 | 9.7 | 14.5 | 0.00 | 0.23 | 0.00 | 33 | 1006.5 |
| 20260506152403 | 22 | 157 | 9.7 | 9.7 | 0.00 | 0.23 | 0.00 | 32 | 1006.5 |
| 20260506152103 | 22 | 167 | 8.0 | 14.5 | 0.00 | 0.23 | 0.00 | 32 | 1006.5 |
| 20260506151803 | 22 | 157 | 9.7 | 16.1 | 0.00 | 0.23 | 0.00 | 33 | 1006.5 |
| 20260506151503 | 22 | 158 | 8.0 | 16.1 | 0.00 | 0.23 | 0.00 | 33 | 1006.5 |
| 20260506151204 | 22 | 153 | 3.2 | 16.1 | 0.00 | 0.23 | 0.00 | 32 | 1006.5 |
| 20260506150903 | 22 | 144 | 16.1 | 16.1 | 0.00 | 0.23 | 0.00 | 31 | 1006.5 |
| 20260506150604 | 23 | 164 | 4.8 | 12.9 | 0.00 | 0.23 | 0.00 | 32 | 1006.5 |
| 20260506150305 | 22 | 189 | 3.2 | 12.9 | 0.00 | 0.23 | 0.00 | 33 | 1006.5 |
| 20260506150003 | 22 | 191 | 12.9 | 12.9 | 0.00 | 0.23 | 0.00 | 32 | 1006.5 |
| 20260506145703 | 22 | 174 | 6.4 | 11.3 | 0.00 | 0.23 | 0.00 | 33 | 1006.5 |
| 20260506145403 | 22 | 152 | 8.0 | 11.3 | 0.00 | 0.23 | 0.00 | 33 | 1007.5 |
| 20260506145103 | 22 | 154 | 4.8 | 11.3 | 0.00 | 0.23 | 0.00 | 33 | 1007.5 |
| 20260506144803 | 22 | 182 | 4.8 | 11.3 | 0.00 | 0.23 | 0.00 | 32 | 1007.5 |
| 20260506144504 | 23 | 188 | 9.7 | 11.3 | 0.00 | 0.23 | 0.00 | 32 | 1007.5 |
| 20260506144203 | 22 | 189 | 6.4 | 11.3 | 0.00 | 0.23 | 0.00 | 33 | 1007.5 |
| 20260506143903 | 22 | 183 | 6.4 | 9.7 | 0.00 | 0.23 | 0.00 | 33 | 1007.5 |
| 20260506143303 | 22 | 188 | 4.8 | 9.7 | 0.00 | 0.23 | 0.00 | 33 | 1007.5 |
| 20260506143003 | 22 | 193 | 9.7 | 9.7 | 0.00 | 0.23 | 0.00 | 33 | 1007.5 |
| 20260506142702 | 22 | 202 | 3.2 | 6.4 | 0.00 | 0.23 | 0.00 | 34 | 1007.5 |
| 20260506142403 | 22 | 184 | 6.4 | 14.5 | 0.00 | 0.23 | 0.00 | 34 | 1007.5 |
| 20260506142103 | 22 | 168 | 4.8 | 14.5 | 0.00 | 0.23 | 0.00 | 33 | 1007.5 |
| 20260506141803 | 22 | 161 | 1.6 | 17.7 | 0.00 | 0.23 | 0.00 | 33 | 1007.5 |
| 20260506141503 | 22 | 161 | 6.4 | 17.7 | 0.00 | 0.23 | 0.00 | 33 | 1007.5 |
| 20260506141203 | 22 | 182 | 11.3 | 17.7 | 0.00 | 0.23 | 0.00 | 32 | 1007.5 |
| 20260506140603 | 23 | 204 | 4.8 | 9.7 | 0.00 | 0.23 | 0.00 | 32 | 1007.5 |
| 20260506140303 | 22 | 202 | 9.7 | 9.7 | 0.00 | 0.23 | 0.00 | 31 | 1007.5 |
| 20260506140004 | 22 | 182 | 3.2 | 9.7 | 0.00 | 0.23 | 0.00 | 32 | 1007.5 |
| 20260506135703 | 22 | 172 | 6.4 | 17.7 | 0.00 | 0.23 | 0.00 | 32 | 1007.5 |
| 20260506135403 | 22 | 167 | 4.8 | 17.7 | 0.00 | 0.23 | 0.00 | 32 | 1007.5 |
| 20260506135103 | 21 | 171 | 3.2 | 17.7 | 0.00 | 0.23 | 0.00 | 32 | 1007.5 |
| 20260506134503 | 22 | 178 | 4.8 | 8.0 | 0.00 | 0.23 | 0.00 | 32 | 1007.5 |
| 20260506134203 | 22 | 192 | 3.2 | 6.4 | 0.00 | 0.23 | 0.00 | 32 | 1007.5 |
| 20260506133903 | 22 | 195 | 6.4 | 6.4 | 0.00 | 0.23 | 0.00 | 30 | 1007.5 |
| 20260506133603 | 22 | 202 | 6.4 | 9.7 | 0.00 | 0.23 | 0.00 | 31 | 1007.5 |
| 20260506133303 | 22 | 199 | 4.8 | 9.7 | 0.00 | 0.23 | 0.00 | 30 | 1007.5 |
| 20260506133003 | 22 | 174 | 3.2 | 16.1 | 0.00 | 0.23 | 0.00 | 31 | 1007.5 |
| 20260506132702 | 22 | 170 | 1.6 | 16.1 | 0.00 | 0.23 | 0.00 | 31 | 1007.5 |
| 20260506132403 | 22 | 169 | 8.0 | 16.1 | 0.00 | 0.23 | 0.00 | 31 | 1007.5 |
| 20260506132104 | 22 | 170 | 16.1 | 16.1 | 0.00 | 0.23 | 0.00 | 31 | 1007.5 |
| 20260506131803 | 22 | 170 | 1.6 | 9.7 | 0.00 | 0.23 | 0.00 | 32 | 1007.5 |
| 20260506131504 | 22 | 179 | 1.6 | 9.7 | 0.00 | 0.23 | 0.00 | 32 | 1007.5 |
| 20260506131203 | 22 | 179 | 4.8 | 6.4 | 0.00 | 0.23 | 0.00 | 35 | 1007.5 |
| 20260506130903 | 21 | 189 | 6.4 | 8.0 | 0.00 | 0.23 | 0.00 | 36 | 1008.5 |
| 20260506130603 | 21 | 192 | 6.4 | 9.7 | 0.00 | 0.23 | 0.00 | 36 | 1008.5 |
| 20260506130303 | 21 | 196 | 4.8 | 12.9 | 0.00 | 0.23 | 0.00 | 35 | 1008.5 |
| 20260506130004 | 21 | 191 | 6.4 | 12.9 | 0.00 | 0.23 | 0.00 | 35 | 1008.5 |
| 20260506125704 | 21 | 193 | 3.2 | 12.9 | 0.00 | 0.23 | 0.00 | 38 | 1008.5 |
| 20260506125403 | 21 | 189 | 9.7 | 12.9 | 0.00 | 0.23 | 0.00 | 37 | 1008.5 |
| 20260506125104 | 21 | 196 | 6.4 | 12.9 | 0.00 | 0.23 | 0.00 | 37 | 1008.5 |
| 20260506124502 | 21 | 202 | 8.0 | 9.7 | 0.00 | 0.23 | 0.00 | 37 | 1008.5 |
| 20260506124203 | 21 | 199 | 9.7 | 9.7 | 0.00 | 0.23 | 0.00 | 37 | 1008.5 |
| 20260506123904 | 21 | 200 | 9.7 | 9.7 | 0.00 | 0.23 | 0.00 | 36 | 1008.5 |
| 20260506123603 | 21 | 197 | 6.4 | 9.7 | 0.00 | 0.23 | 0.00 | 37 | 1008.5 |
| 20260506123002 | 21 | 206 | 6.4 | 11.3 | 0.00 | 0.23 | 0.00 | 38 | 1008.5 |
| 20260506122703 | 21 | 200 | 9.7 | 11.3 | 0.00 | 0.23 | 0.00 | 37 | 1008.5 |
| 20260506122403 | 21 | 196 | 6.4 | 9.7 | 0.00 | 0.23 | 0.00 | 39 | 1008.5 |
| 20260506122103 | 21 | 198 | 3.2 | 9.7 | 0.00 | 0.23 | 0.00 | 38 | 1008.5 |
| 20260506121803 | 21 | 204 | 4.8 | 9.7 | 0.00 | 0.23 | 0.00 | 36 | 1008.5 |
| 20260506121504 | 21 | 206 | 6.4 | 11.3 | 0.00 | 0.23 | 0.00 | 37 | 1008.5 |
| 20260506121203 | 21 | 209 | 8.0 | 11.3 | 0.00 | 0.23 | 0.00 | 37 | 1008.5 |
| 20260506120602 | 21 | 215 | 11.3 | 12.9 | 0.00 | 0.23 | 0.00 | 37 | 1008.5 |
| 20260506120004 | 21 | 207 | 9.7 | 12.9 | 0.00 | 0.23 | 0.00 | 35 | 1008.5 |
| 20260506115403 | 21 | 198 | 8.0 | 16.1 | 0.00 | 0.23 | 0.00 | 33 | 1008.5 |
| 20260506115103 | 21 | 195 | 4.8 | 16.1 | 0.00 | 0.23 | 0.00 | 33 | 1008.5 |
| 20260506114802 | 21 | 199 | 6.4 | 16.1 | 0.00 | 0.23 | 0.00 | 34 | 1008.5 |
| 20260506114502 | 21 | 204 | 6.4 | 9.7 | 0.00 | 0.23 | 0.00 | 34 | 1008.5 |
| 20260506114203 | 21 | 196 | 6.4 | 16.1 | 0.00 | 0.23 | 0.00 | 34 | 1008.5 |
| 20260506113904 | 21 | 200 | 8.0 | 16.1 | 0.00 | 0.23 | 0.00 | 34 | 1008.5 |
| 20260506113603 | 21 | 204 | 4.8 | 16.1 | 0.00 | 0.23 | 0.00 | 34 | 1008.5 |
| 20260506113302 | 21 | 191 | 6.4 | 11.3 | 0.00 | 0.23 | 0.00 | 35 | 1008.5 |
| 20260506113003 | 21 | 178 | 4.8 | 11.3 | 0.00 | 0.23 | 0.00 | 36 | 1008.5 |
| 20260506112703 | 20 | 179 | 6.4 | 11.3 | 0.00 | 0.23 | 0.00 | 38 | 1008.5 |
| 20260506112103 | 21 | 209 | 3.2 | 11.3 | 0.00 | 0.23 | 0.00 | 41 | 1008.5 |
| 20260506111802 | 21 | 224 | 4.8 | 11.3 | 0.00 | 0.23 | 0.00 | 42 | 1008.5 |
| 20260506111502 | 20 | 217 | 4.8 | 11.3 | 0.00 | 0.23 | 0.00 | 42 | 1008.5 |
| 20260506111203 | 21 | 220 | 11.3 | 11.3 | 0.00 | 0.23 | 0.00 | 40 | 1008.5 |
| 20260506110903 | 21 | 185 | 3.2 | 9.7 | 0.00 | 0.23 | 0.00 | 40 | 1008.5 |
| 20260506110602 | 21 | 177 | 9.7 | 9.7 | 0.00 | 0.23 | 0.00 | 39 | 1008.5 |
| 20260506110303 | 21 | 168 | 3.2 | 9.7 | 0.00 | 0.23 | 0.00 | 38 | 1008.5 |
| 20260506110003 | 21 | 166 | 4.8 | 8.0 | 0.00 | 0.23 | 0.00 | 38 | 1008.5 |
| 20260506105703 | 20 | 179 | 3.2 | 8.0 | 0.00 | 0.23 | 0.00 | 38 | 1008.5 |
| 20260506105102 | 20 | 190 | 3.2 | 12.9 | 0.00 | 0.23 | 0.00 | 38 | 1008.5 |
| 20260506104803 | 21 | 190 | 6.4 | 12.9 | 0.00 | 0.23 | 0.00 | 37 | 1008.5 |
| 20260506104504 | 20 | 173 | 6.4 | 12.9 | 0.00 | 0.23 | 0.00 | 37 | 1008.5 |
| 20260506104203 | 21 | 182 | 8.0 | 9.7 | 0.00 | 0.23 | 0.00 | 38 | 1008.5 |
| 20260506103903 | 20 | 182 | 3.2 | 9.7 | 0.00 | 0.23 | 0.00 | 41 | 1008.5 |
| 20260506103603 | 20 | 207 | 9.7 | 9.7 | 0.00 | 0.23 | 0.00 | 40 | 1008.5 |
| 20260506103003 | 21 | 176 | 3.2 | 12.9 | 0.00 | 0.23 | 0.00 | 39 | 1008.5 |
| 20260506102702 | 21 | 169 | 3.2 | 12.9 | 0.00 | 0.23 | 0.00 | 36 | 1008.5 |
| 20260506102403 | 22 | 156 | 12.9 | 12.9 | 0.00 | 0.23 | 0.00 | 37 | 1008.5 |
| 20260506102102 | 22 | 158 | 4.8 | 9.7 | 0.00 | 0.23 | 0.00 | 36 | 1008.5 |
| 20260506101804 | 22 | 141 | 1.6 | 9.7 | 0.00 | 0.23 | 0.00 | 36 | 1008.5 |
| 20260506101203 | 22 | 149 | 1.6 | 6.4 | 0.00 | 0.23 | 0.00 | 37 | 1008.5 |
| 20260506100903 | 21 | 137 | 4.8 | 8.0 | 0.00 | 0.23 | 0.00 | 37 | 1008.5 |
| 20260506100602 | 21 | 143 | 3.2 | 8.0 | 0.00 | 0.23 | 0.00 | 38 | 1008.5 |
| 20260506100002 | 21 | 125 | 4.8 | 9.7 | 0.00 | 0.23 | 0.00 | 38 | 1008.5 |
| 20260506095402 | 20 | 121 | 3.2 | 9.7 | 0.00 | 0.23 | 0.00 | 42 | 1008.5 |
| 20260506095103 | 20 | 126 | 6.4 | 17.7 | 0.00 | 0.23 | 0.00 | 41 | 1008.5 |
| 20260506094803 | 20 | 137 | 3.2 | 17.7 | 0.00 | 0.23 | 0.00 | 42 | 1008.5 |
| 20260506094502 | 20 | 133 | 9.7 | 17.7 | 0.00 | 0.23 | 0.00 | 41 | 1009.5 |
| 20260506094203 | 21 | 138 | 17.7 | 17.7 | 0.00 | 0.23 | 0.00 | 36 | 1009.5 |
| 20260506093903 | 21 | 144 | 4.8 | 11.3 | 0.00 | 0.23 | 0.00 | 34 | 1009.5 |
| 20260506093602 | 21 | 158 | 6.4 | 8.0 | 0.00 | 0.23 | 0.00 | 35 | 1009.5 |
| 20260506093302 | 22 | 171 | 3.2 | 8.0 | 0.00 | 0.23 | 0.00 | 35 | 1009.5 |
| 20260506093003 | 21 | 146 | 1.6 | 8.0 | 0.00 | 0.23 | 0.00 | 36 | 1009.5 |
| 20260506092702 | 21 | 152 | 8.0 | 8.0 | 0.00 | 0.23 | 0.00 | 37 | 1009.5 |
| 20260506092403 | 21 | 149 | 1.6 | 11.3 | 0.00 | 0.23 | 0.00 | 36 | 1009.5 |
| 20260506092103 | 20 | 154 | 6.4 | 11.3 | 0.00 | 0.23 | 0.00 | 36 | 1009.5 |
| 20260506091802 | 20 | 134 | 4.8 | 11.3 | 0.00 | 0.23 | 0.00 | 37 | 1009.5 |
| 20260506091503 | 20 | 130 | 11.3 | 11.3 | 0.00 | 0.23 | 0.00 | 37 | 1008.5 |
| 20260506091203 | 20 | 124 | 3.2 | 11.3 | 0.00 | 0.23 | 0.00 | 37 | 1008.5 |
| 20260506090903 | 20 | 138 | 9.7 | 11.3 | 0.00 | 0.23 | 0.00 | 39 | 1008.5 |
| 20260506090603 | 20 | 145 | 6.4 | 11.3 | 0.00 | 0.23 | 0.00 | 39 | 1008.5 |
| 20260506090303 | 20 | 152 | 9.7 | 9.7 | 0.00 | 0.23 | 0.00 | 39 | 1008.5 |
| 20260506085402 | 20 | 138 | 9.7 | 16.1 | 0.00 | 0.23 | 0.00 | 39 | 1008.5 |
| 20260506085103 | 20 | 143 | 3.2 | 16.1 | 0.00 | 0.23 | 0.00 | 43 | 1008.5 |
| 20260506084803 | 20 | 142 | 6.4 | 16.1 | 0.00 | 0.23 | 0.00 | 42 | 1008.5 |
| 20260506084503 | 20 | 148 | 16.1 | 16.1 | 0.00 | 0.23 | 0.00 | 43 | 1008.5 |
| 20260506084204 | 20 | 140 | 6.4 | 14.5 | 0.00 | 0.23 | 0.00 | 41 | 1008.5 |
| 20260506083603 | 20 | 130 | 12.9 | 14.5 | 0.00 | 0.23 | 0.00 | 40 | 1008.5 |
| 20260506083302 | 20 | 130 | 4.8 | 11.3 | 0.00 | 0.23 | 0.00 | 40 | 1008.5 |
| 20260506083003 | 21 | 143 | 11.3 | 11.3 | 0.00 | 0.23 | 0.00 | 41 | 1008.5 |
| 20260506082702 | 20 | 146 | 3.2 | 6.4 | 0.00 | 0.23 | 0.00 | 40 | 1008.5 |
| 20260506082403 | 21 | 125 | 3.2 | 6.4 | 0.00 | 0.23 | 0.00 | 43 | 1008.5 |
| 20260506081503 | 20 | 47 | 3.2 | 6.4 | 0.00 | 0.23 | 0.00 | 44 | 1008.5 |
| 20260506081203 | 20 | 17 | 4.8 | 6.4 | 0.00 | 0.23 | 0.00 | 46 | 1008.5 |
| 20260506080603 | 19 | 28 | 4.8 | 6.4 | 0.00 | 0.23 | 0.00 | 47 | 1008.5 |
| 20260506080302 | 19 | 57 | 3.2 | 9.7 | 0.00 | 0.33 | 0.00 | 48 | 1008.5 |
| 20260506073303 | 17 | 23 | 6.4 | 9.7 | 0.00 | 0.33 | 0.00 | 72 | 1008.5 |
| 20260506073002 | 17 | 21 | 6.4 | 14.5 | 0.00 | 0.33 | 0.00 | 71 | 1008.5 |
| 20260506072402 | 17 | 17 | 6.4 | 14.5 | 0.00 | 0.33 | 0.00 | 73 | 1008.5 |
| 20260506072103 | 17 | 16 | 14.5 | 14.5 | 0.00 | 0.33 | 0.00 | 76 | 1008.5 |
| 20260506071803 | 17 | 21 | 9.7 | 11.3 | 0.00 | 0.33 | 0.00 | 75 | 1008.5 |
| 20260506071203 | 16 | 30 | 11.3 | 11.3 | 0.00 | 0.33 | 0.00 | 78 | 1007.5 |
| 20260506070902 | 16 | 30 | 3.2 | 9.7 | 0.00 | 0.33 | 0.00 | 79 | 1007.5 |
| 20260506070603 | 16 | 35 | 8.0 | 11.3 | 0.00 | 0.33 | 0.00 | 78 | 1007.5 |
| 20260506070303 | 16 | 34 | 6.4 | 12.9 | 0.00 | 0.33 | 0.00 | 80 | 1007.5 |
| 20260506062403 | 16 | 348 | 14.5 | 14.5 | 0.00 | 0.33 | 0.00 | 88 | 1007.5 |
| 20260506062103 | 16 | 47 | 1.6 | 4.8 | 0.00 | 0.33 | 0.00 | 90 | 1007.5 |
| 20260506061803 | 16 | 62 | 3.2 | 4.8 | 0.00 | 0.33 | 0.00 | 89 | 1007.5 |
| 20260506061503 | 16 | 71 | 3.2 | 4.8 | 0.00 | 0.33 | 0.00 | 90 | 1007.5 |
| 20260506061203 | 15 | 64 | 4.8 | 4.8 | 0.00 | 0.33 | 0.00 | 92 | 1007.5 |
| 20260506060902 | 15 | 50 | 3.2 | 4.8 | 0.00 | 0.33 | 0.00 | 92 | 1007.5 |
| 20260506060603 | 15 | 34 | 3.2 | 3.2 | 0.00 | 0.33 | 0.00 | 93 | 1007.5 |
| 20260506060302 | 15 | 25 | 1.6 | 4.8 | 0.00 | 0.33 | 0.00 | 94 | 1007.5 |
| 20260506051203 | 11 | 6 | 3.2 | 3.2 | 0.00 | 0.33 | 0.00 | 98 | 1007.5 |
| 20260506050303 | 10 | 347 | 3.2 | 4.8 | 0.00 | 0.33 | 0.00 | 98 | 1007.5 |
| 20260506045103 | 10 | 357 | 3.2 | 4.8 | 0.00 | 0.33 | 0.00 | 98 | 1007.5 |
| 20260506044802 | 10 | 5 | 3.2 | 3.2 | 0.00 | 0.33 | 0.00 | 98 | 1007.5 |
| 20260506044503 | 10 | 18 | 3.2 | 3.2 | 0.00 | 0.33 | 0.00 | 98 | 1007.5 |
| 20260506044202 | 10 | 29 | 1.6 | 3.2 | 0.00 | 0.33 | 0.00 | 98 | 1007.5 |
| 20260506043903 | 10 | 44 | 0.0 | 3.2 | 0.00 | 0.33 | 0.00 | 98 | 1007.5 |
| 20260506043603 | 10 | 74 | 0.0 | 3.2 | 0.00 | 0.33 | 0.00 | 98 | 1007.5 |
| 20260506043303 | 10 | 67 | 0.0 | 3.2 | 0.00 | 0.33 | 0.00 | 98 | 1007.5 |
| 20260506042703 | 10 | 67 | 3.2 | 3.2 | 0.00 | 0.33 | 0.00 | 98 | 1007.5 |
| 20260506042102 | 10 | 12 | 0.0 | 4.8 | 0.00 | 0.33 | 0.00 | 98 | 1007.5 |
| 20260506041502 | 10 | 14 | 3.2 | 4.8 | 0.00 | 0.33 | 0.00 | 98 | 1007.5 |
| 20260506041202 | 10 | 21 | 3.2 | 3.2 | 0.00 | 0.33 | 0.00 | 98 | 1007.5 |
| 20260506040903 | 10 | 26 | 3.2 | 3.2 | 0.00 | 0.33 | 0.00 | 98 | 1007.5 |
| 20260506040603 | 10 | 35 | 0.0 | 3.2 | 0.00 | 0.33 | 0.00 | 98 | 1007.5 |
| 20260506040303 | 10 | 12 | 0.0 | 3.2 | 0.00 | 0.33 | 0.00 | 98 | 1007.5 |
| 20260506040003 | 10 | 350 | 1.6 | 4.8 | 0.00 | 0.33 | 0.00 | 98 | 1006.5 |
| 20260506035703 | 10 | 343 | 3.2 | 4.8 | 0.00 | 0.33 | 0.00 | 98 | 1006.5 |
| 20260506035403 | 10 | 334 | 3.2 | 4.8 | 0.00 | 0.33 | 0.00 | 98 | 1006.5 |
| 20260506035103 | 10 | 317 | 3.2 | 3.2 | 0.00 | 0.33 | 0.00 | 98 | 1006.5 |
| 20260506033603 | 10 | 317 | 3.2 | 4.8 | 0.00 | 0.33 | 0.00 | 98 | 1006.5 |
| 20260506033302 | 10 | 322 | 1.6 | 4.8 | 0.00 | 0.33 | 0.00 | 98 | 1006.5 |
| 20260506033002 | 10 | 333 | 4.8 | 4.8 | 0.00 | 0.33 | 0.00 | 98 | 1006.5 |
| 20260506032703 | 10 | 349 | 3.2 | 3.2 | 0.00 | 0.33 | 0.00 | 98 | 1006.5 |
| 20260506032404 | 10 | 356 | 3.2 | 3.2 | 0.00 | 0.33 | 0.00 | 98 | 1006.5 |
| 20260506032103 | 11 | 356 | 3.2 | 3.2 | 0.00 | 0.33 | 0.00 | 98 | 1006.5 |
| 20260506031802 | 11 | 351 | 3.2 | 4.8 | 0.00 | 0.33 | 0.00 | 98 | 1006.5 |
| 20260506031503 | 11 | 341 | 3.2 | 4.8 | 0.00 | 0.33 | 0.00 | 98 | 1006.5 |
| 20260506031203 | 11 | 326 | 3.2 | 4.8 | 0.00 | 0.33 | 0.00 | 98 | 1006.5 |
| 20260506030903 | 11 | 306 | 3.2 | 3.2 | 0.00 | 0.33 | 0.00 | 98 | 1006.5 |
| 20260506030603 | 11 | 312 | 1.6 | 3.2 | 0.00 | 0.33 | 0.00 | 98 | 1006.5 |
| 20260506030003 | 10 | 307 | 1.6 | 3.2 | 0.00 | 0.33 | 0.00 | 98 | 1006.5 |
| 20260506025403 | 10 | 291 | 3.2 | 4.8 | 0.00 | 0.33 | 0.00 | 98 | 1006.5 |
| 20260506025103 | 10 | 294 | 3.2 | 4.8 | 0.00 | 0.33 | 0.00 | 98 | 1006.5 |
| 20260506024803 | 10 | 299 | 3.2 | 4.8 | 0.00 | 0.33 | 0.00 | 98 | 1006.5 |
| 20260506024503 | 10 | 302 | 4.8 | 4.8 | 0.00 | 0.33 | 0.00 | 98 | 1006.5 |
| 20260506023904 | 10 | 307 | 4.8 | 6.4 | 0.00 | 0.33 | 0.00 | 98 | 1006.5 |
| 20260506022703 | 10 | 357 | 3.2 | 3.2 | 0.00 | 0.33 | 0.00 | 98 | 1006.5 |
| 20260506022403 | 10 | 348 | 1.6 | 3.2 | 0.00 | 0.33 | 0.00 | 98 | 1006.5 |
| 20260506022102 | 10 | 352 | 3.2 | 3.2 | 0.00 | 0.33 | 0.00 | 98 | 1006.5 |
| 20260506021802 | 10 | 1 | 0.0 | 3.2 | 0.00 | 0.33 | 0.00 | 98 | 1006.5 |
| 20260506021502 | 10 | 1 | 3.2 | 3.2 | 0.00 | 0.33 | 0.00 | 98 | 1006.5 |
| 20260506021203 | 10 | 342 | 0.0 | 1.6 | 0.00 | 0.33 | 0.00 | 98 | 1006.5 |
| 20260506020903 | 10 | 335 | 0.0 | 4.8 | 0.00 | 0.33 | 0.00 | 98 | 1006.5 |
| 20260506020603 | 10 | 318 | 0.0 | 4.8 | 0.00 | 0.33 | 0.00 | 98 | 1006.5 |
| 20260506020302 | 11 | 317 | 1.6 | 4.8 | 0.00 | 0.33 | 0.00 | 98 | 1006.5 |
| 20260506015703 | 11 | 310 | 3.2 | 3.2 | 0.00 | 0.33 | 0.00 | 98 | 1006.5 |
| 20260506015402 | 11 | 324 | 3.2 | 3.2 | 0.00 | 0.33 | 0.00 | 98 | 1006.5 |
| 20260506015102 | 10 | 346 | 3.2 | 4.8 | 0.00 | 0.33 | 0.00 | 98 | 1006.5 |
| 20260506014803 | 10 | 359 | 0.0 | 4.8 | 0.00 | 0.33 | 0.00 | 98 | 1006.5 |
| 20260506014502 | 10 | 4 | 3.2 | 4.8 | 0.00 | 0.33 | 0.00 | 98 | 1006.5 |
| 20260506014203 | 11 | 337 | 0.0 | 3.2 | 0.00 | 0.33 | 0.00 | 98 | 1006.5 |
| 20260506013902 | 11 | 343 | 0.0 | 3.2 | 0.00 | 0.33 | 0.00 | 98 | 1006.5 |
| 20260506013602 | 11 | 351 | 1.6 | 3.2 | 0.00 | 0.33 | 0.00 | 98 | 1006.5 |
| 20260506013303 | 11 | 3 | 3.2 | 3.2 | 0.00 | 0.33 | 0.00 | 98 | 1006.5 |
| 20260506013002 | 11 | 37 | 0.0 | 1.6 | 0.00 | 0.33 | 0.00 | 98 | 1006.5 |
| 20260506012703 | 11 | 46 | 0.0 | 3.2 | 0.00 | 0.33 | 0.00 | 98 | 1006.5 |
| 20260506012103 | 11 | 46 | 0.0 | 3.2 | 0.00 | 0.33 | 0.00 | 98 | 1006.5 |
| 20260506011803 | 11 | 46 | 1.6 | 3.2 | 0.00 | 0.33 | 0.00 | 98 | 1006.5 |
| 20260506011502 | 11 | 0 | 0.0 | 0.0 | 0.00 | 0.33 | 0.00 | 98 | 1006.5 |
| 20260506011202 | 11 | 46 | 0.0 | 1.6 | 0.00 | 0.33 | 0.00 | 98 | 1006.5 |
| 20260506010903 | 11 | 46 | 0.0 | 3.2 | 0.00 | 0.33 | 0.00 | 98 | 1006.5 |
| 20260506010303 | 11 | 21 | 1.6 | 3.2 | 0.00 | 0.33 | 0.00 | 98 | 1006.5 |
| 20260506010002 | 11 | 27 | 0.0 | 3.2 | 0.00 | 0.33 | 0.00 | 98 | 1006.5 |
| 20260506005703 | 12 | 29 | 1.6 | 3.2 | 0.00 | 0.33 | 0.00 | 98 | 1006.5 |
| 20260506005402 | 12 | 45 | 0.0 | 3.2 | 0.00 | 0.33 | 0.00 | 98 | 1006.5 |
| 20260506005103 | 12 | 33 | 3.2 | 3.2 | 0.00 | 0.33 | 0.00 | 98 | 1006.5 |
| 20260506004503 | 12 | 355 | 0.0 | 4.8 | 0.00 | 0.33 | 0.00 | 98 | 1006.5 |
| 20260506004203 | 12 | 355 | 1.6 | 4.8 | 0.00 | 0.33 | 0.00 | 98 | 1006.5 |
| 20260506003903 | 12 | 337 | 1.6 | 3.2 | 0.00 | 0.33 | 0.00 | 98 | 1006.5 |
| 20260506003604 | 12 | 337 | 0.0 | 3.2 | 0.00 | 0.33 | 0.00 | 98 | 1006.5 |
| 20260506003003 | 12 | 9 | 1.6 | 1.6 | 0.00 | 0.33 | 0.00 | 98 | 1006.5 |
| 20260506002703 | 12 | 29 | 0.0 | 3.2 | 0.00 | 0.33 | 0.00 | 98 | 1006.5 |
| 20260506002403 | 12 | 28 | 0.0 | 3.2 | 0.00 | 0.33 | 0.00 | 98 | 1006.5 |
| 20260506002103 | 12 | 24 | 0.0 | 3.2 | 0.00 | 0.33 | 0.00 | 98 | 1006.5 |
| 20260506001802 | 12 | 8 | 3.2 | 3.2 | 0.00 | 0.33 | 0.00 | 98 | 1006.5 |
| 20260506001503 | 12 | 340 | 1.6 | 3.2 | 0.00 | 0.33 | 0.00 | 98 | 1006.5 |
| 20260506001202 | 12 | 327 | 3.2 | 3.2 | 0.00 | 0.33 | 0.00 | 98 | 1006.5 |
| 20260506000903 | 12 | 318 | 3.2 | 3.2 | 0.00 | 0.33 | 0.00 | 98 | 1006.5 |
| 20260506000602 | 12 | 314 | 3.2 | 3.2 | 0.00 | 0.33 | 0.00 | 98 | 1006.5 |
| 20260506000303 | 13 | 314 | 1.6 | 3.2 | 0.00 | 0.33 | 0.00 | 98 | 1006.5 |
| 20260506000004 | 13 | 314 | 0.0 | 1.6 | 0.00 | 0.33 | 0.00 | 98 | 1006.5 |
| 20260505235702 | 13 | 314 | 0.0 | 3.2 | 0.00 | 0.33 | 0.00 | 98 | 1006.5 |
| 20260505234802 | 13 | 293 | 3.2 | 3.2 | 0.00 | 0.33 | 0.00 | 98 | 1006.5 |
| 20260505234503 | 13 | 286 | 1.6 | 1.6 | 0.00 | 0.33 | 0.00 | 98 | 1006.5 |
| 20260505234202 | 13 | 296 | 0.0 | 3.2 | 0.00 | 0.33 | 0.00 | 98 | 1006.5 |
| 20260505233902 | 13 | 293 | 1.6 | 6.4 | 0.00 | 0.33 | 0.00 | 98 | 1006.5 |
| 20260505233602 | 13 | 288 | 1.6 | 6.4 | 0.00 | 0.33 | 0.00 | 98 | 1006.5 |
| 20260505233303 | 13 | 283 | 1.6 | 6.4 | 0.00 | 0.33 | 0.00 | 98 | 1006.5 |
| 20260505233002 | 13 | 278 | 6.4 | 6.4 | 0.00 | 0.33 | 0.00 | 98 | 1006.5 |
| 20260505232702 | 13 | 266 | 3.2 | 4.8 | 0.00 | 0.33 | 0.00 | 98 | 1006.5 |
| 20260505232403 | 13 | 259 | 0.0 | 4.8 | 0.00 | 0.33 | 0.00 | 98 | 1006.5 |
| 20260505232102 | 13 | 244 | 4.8 | 4.8 | 0.00 | 0.33 | 0.00 | 98 | 1006.5 |
| 20260505231802 | 13 | 0 | 0.0 | 0.0 | 0.00 | 0.33 | 0.00 | 98 | 1006.5 |
| 20260505231502 | 13 | 0 | 0.0 | 0.0 | 0.00 | 0.33 | 0.00 | 98 | 1006.5 |
| 20260505231203 | 13 | 0 | 0.0 | 0.0 | 0.00 | 0.33 | 0.00 | 98 | 1006.5 |
| 20260505230903 | 14 | 22 | 0.0 | 1.6 | 0.00 | 0.33 | 0.00 | 98 | 1006.5 |
| 20260505230602 | 14 | 32 | 0.0 | 4.8 | 0.00 | 0.33 | 0.00 | 98 | 1006.5 |
| 20260505230303 | 14 | 32 | 0.0 | 4.8 | 0.00 | 0.33 | 0.00 | 98 | 1006.5 |
| 20260505230002 | 14 | 34 | 0.0 | 4.8 | 0.00 | 0.33 | 0.00 | 98 | 1006.5 |
| 20260505225702 | 14 | 46 | 3.2 | 3.2 | 0.00 | 0.33 | 0.00 | 98 | 1006.5 |
| 20260505225403 | 15 | 46 | 0.0 | 1.6 | 0.00 | 0.33 | 0.00 | 98 | 1006.5 |
| 20260505225102 | 15 | 46 | 0.0 | 1.6 | 0.00 | 0.33 | 0.00 | 98 | 1006.5 |
| 20260505224803 | 15 | 46 | 0.0 | 1.6 | 0.00 | 0.33 | 0.00 | 98 | 1006.5 |
| 20260505224502 | 15 | 307 | 0.0 | 3.2 | 0.00 | 0.33 | 0.00 | 98 | 1006.5 |
| 20260505224202 | 15 | 296 | 0.0 | 6.4 | 0.00 | 0.33 | 0.00 | 98 | 1006.5 |
| 20260505223903 | 15 | 294 | 0.0 | 6.4 | 0.00 | 0.33 | 0.00 | 98 | 1006.5 |
| 20260505223602 | 15 | 288 | 3.2 | 8.0 | 0.00 | 0.33 | 0.00 | 98 | 1006.5 |
| 20260505223303 | 15 | 289 | 6.4 | 8.0 | 0.00 | 0.33 | 0.00 | 98 | 1006.5 |
| 20260505222702 | 15 | 295 | 4.8 | 8.0 | 0.00 | 0.33 | 0.00 | 98 | 1007.5 |
| 20260505222102 | 15 | 293 | 8.0 | 11.3 | 0.00 | 0.33 | 0.00 | 98 | 1007.5 |
| 20260505221803 | 15 | 285 | 4.8 | 11.3 | 0.00 | 0.33 | 0.00 | 98 | 1007.5 |
| 20260505221203 | 15 | 290 | 6.4 | 11.3 | 0.00 | 0.33 | 0.00 | 98 | 1007.5 |
| 20260505220903 | 15 | 300 | 6.4 | 11.3 | 0.00 | 0.33 | 0.00 | 98 | 1007.5 |
| 20260505220602 | 15 | 297 | 11.3 | 11.3 | 0.00 | 0.33 | 0.00 | 98 | 1007.5 |
| 20260505220303 | 15 | 296 | 8.0 | 8.0 | 0.00 | 0.33 | 0.00 | 98 | 1007.5 |
| 20260505215404 | 15 | 283 | 4.8 | 4.8 | 0.00 | 0.33 | 0.33 | 98 | 1007.5 |
| 20260505215103 | 15 | 284 | 3.2 | 8.0 | 0.00 | 0.33 | 0.33 | 98 | 1007.5 |
| 20260505214802 | 15 | 287 | 1.6 | 8.0 | 0.00 | 0.33 | 0.33 | 98 | 1007.5 |
| 20260505214503 | 15 | 289 | 4.8 | 8.0 | 0.00 | 0.33 | 0.33 | 98 | 1007.5 |
| 20260505214202 | 15 | 292 | 8.0 | 8.0 | 0.00 | 0.33 | 0.33 | 98 | 1007.5 |
| 20260505213905 | 15 | 290 | 3.2 | 4.8 | 0.00 | 0.33 | 0.33 | 98 | 1007.5 |
| 20260505213602 | 15 | 284 | 3.2 | 3.2 | 0.00 | 0.33 | 0.33 | 98 | 1007.5 |
| 20260505213302 | 15 | 297 | 3.2 | 3.2 | 0.00 | 0.33 | 0.33 | 98 | 1007.5 |
| 20260505213003 | 15 | 314 | 0.0 | 3.2 | 0.00 | 0.33 | 0.33 | 98 | 1007.5 |
| 20260505212702 | 15 | 314 | 1.6 | 3.2 | 0.00 | 0.33 | 0.33 | 98 | 1007.5 |
| 20260505212403 | 15 | 314 | 3.2 | 3.2 | 0.00 | 0.33 | 0.33 | 98 | 1007.5 |
| 20260505212102 | 15 | 314 | 1.6 | 1.6 | 0.00 | 0.33 | 0.33 | 98 | 1007.5 |
| 20260505211802 | 15 | 314 | 0.0 | 1.6 | 0.00 | 0.33 | 0.33 | 98 | 1007.5 |
| 20260505211503 | 15 | 314 | 0.0 | 1.6 | 0.00 | 0.33 | 0.33 | 98 | 1007.5 |
| 20260505210303 | 15 | 286 | 1.6 | 6.4 | 0.00 | 0.33 | 0.33 | 98 | 1007.5 |
| 20260505210002 | 15 | 279 | 1.6 | 6.4 | 0.00 | 0.33 | 0.33 | 98 | 1007.5 |
| 20260505205102 | 15 | 261 | 0.0 | 4.8 | 0.00 | 0.33 | 0.33 | 98 | 1007.5 |
| 20260505204803 | 15 | 263 | 1.6 | 4.8 | 0.00 | 0.33 | 0.33 | 98 | 1007.5 |
| 20260505203903 | 15 | 334 | 0.0 | 3.2 | 0.00 | 0.33 | 0.33 | 98 | 1007.5 |
| 20260505203303 | 15 | 330 | 1.6 | 3.2 | 0.00 | 0.33 | 0.33 | 98 | 1007.5 |
| 20260505203002 | 15 | 335 | 0.0 | 3.2 | 0.00 | 0.33 | 0.33 | 98 | 1007.5 |
| 20260505202702 | 15 | 335 | 0.0 | 3.2 | 0.00 | 0.33 | 0.33 | 98 | 1007.5 |
| 20260505202403 | 15 | 342 | 3.2 | 3.2 | 0.00 | 0.33 | 0.33 | 98 | 1007.5 |
| 20260505202103 | 15 | 353 | 1.6 | 3.2 | 0.00 | 0.33 | 0.33 | 98 | 1007.5 |
| 20260505201203 | 15 | 32 | 0.0 | 3.2 | 0.00 | 0.33 | 0.33 | 98 | 1006.5 |
| 20260505200903 | 15 | 17 | 0.0 | 3.2 | 0.00 | 0.33 | 0.33 | 98 | 1006.5 |
| 20260505200303 | 15 | 321 | 0.0 | 3.2 | 0.00 | 0.33 | 0.33 | 98 | 1006.5 |
| 20260505200002 | 15 | 317 | 1.6 | 3.2 | 0.00 | 0.33 | 0.33 | 98 | 1006.5 |
| 20260505195702 | 15 | 311 | 3.2 | 4.8 | 0.00 | 0.33 | 0.33 | 98 | 1006.5 |
| 20260505195402 | 15 | 306 | 3.2 | 4.8 | 0.00 | 0.33 | 0.33 | 98 | 1006.5 |
| 20260505195103 | 15 | 298 | 3.2 | 4.8 | 0.00 | 0.33 | 0.33 | 98 | 1006.5 |
| 20260505194802 | 15 | 296 | 3.2 | 4.8 | 0.00 | 0.33 | 0.33 | 98 | 1006.5 |
| 20260505194503 | 15 | 285 | 3.2 | 6.4 | 0.00 | 0.33 | 0.33 | 98 | 1006.5 |
| 20260505194202 | 15 | 285 | 4.8 | 6.4 | 0.00 | 0.33 | 0.33 | 98 | 1006.5 |
| 20260505193902 | 15 | 282 | 4.8 | 6.4 | 0.00 | 0.33 | 0.33 | 98 | 1006.5 |
| 20260505193603 | 15 | 277 | 3.2 | 4.8 | 0.00 | 0.33 | 0.33 | 98 | 1006.5 |
| 20260505193303 | 15 | 229 | 0.0 | 1.6 | 0.00 | 0.33 | 0.33 | 98 | 1006.5 |
| 20260505192703 | 15 | 223 | 0.0 | 4.8 | 0.00 | 0.33 | 0.33 | 98 | 1006.5 |
| 20260505192102 | 15 | 257 | 4.8 | 4.8 | 0.00 | 0.33 | 0.33 | 98 | 1006.5 |
| 20260505191803 | 15 | 287 | 0.0 | 4.8 | 0.10 | 0.33 | 0.33 | 98 | 1006.5 |
| 20260505191503 | 15 | 301 | 1.6 | 4.8 | 0.10 | 0.43 | 0.33 | 98 | 1005.5 |
| 20260505191203 | 15 | 312 | 0.0 | 4.8 | 0.10 | 0.43 | 0.33 | 98 | 1005.5 |
| 20260505190902 | 15 | 316 | 0.0 | 4.8 | 0.10 | 0.43 | 0.33 | 98 | 1005.5 |
| 20260505190602 | 15 | 296 | 0.0 | 6.4 | 0.10 | 0.43 | 0.33 | 98 | 1005.5 |
| 20260505190303 | 15 | 295 | 3.2 | 6.4 | 0.10 | 0.43 | 0.33 | 98 | 1005.5 |
| 20260505190004 | 15 | 281 | 4.8 | 8.0 | 0.10 | 0.43 | 0.33 | 98 | 1005.5 |
| 20260505185702 | 15 | 282 | 6.4 | 8.0 | 0.10 | 0.43 | 0.33 | 98 | 1005.5 |
| 20260505185402 | 15 | 284 | 6.4 | 8.0 | 0.10 | 0.43 | 0.33 | 98 | 1005.5 |